LINCON Weather Reports


Display with metric or nautical units.
time (UTC)temp
F
wind
direction
speed
MPH
gust
MPH
rain 1hr
in
rain 24hr
in
rain mn
in
humidity
%
barometer
mb
20200120031511 52 75 5.0 8.0 0.00 0.00 0.00 99 1015.7
20200120031011 52 0 7.0 7.0 0.00 0.00 0.00 99 1015.5
20200120030510 52 0 0.0 7.0 0.00 0.00 0.00 98 1015.8
20200120030011 52 0 0.0 7.0 0.00 0.00 0.00 97 1015.9
20200120025511 52 0 0.0 7.0 0.00 0.00 0.00 98 1016.0
20200120025011 52 77 0.0 9.0 0.00 0.00 0.00 97 1016.0
20200120024510 52 78 5.0 9.0 0.00 0.00 0.00 98 1016.0
20200120024010 52 78 7.0 9.0 0.00 0.00 0.00 97 1016.0
20200120023510 52 71 2.0 7.0 0.00 0.00 0.00 97 1016.1
20200120023010 52 0 6.0 6.0 0.00 0.00 0.00 97 1016.1
20200120022510 52 0 0.0 0.0 0.00 0.00 0.00 96 1016.4
20200120022010 52 0 0.0 0.0 0.00 0.00 0.00 96 1016.4
20200120021511 52 0 0.0 0.0 0.00 0.00 0.00 96 1016.4
20200120021010 52 0 0.0 0.0 0.00 0.00 0.00 96 1016.6
20200120020510 52 0 0.0 0.0 0.00 0.00 0.00 96 1016.8
20200120020010 52 0 0.0 7.0 0.00 0.00 0.00 96 1016.9
20200120015510 52 152 0.0 7.0 0.00 0.00 0.00 95 1016.9
20200120015010 52 168 4.0 7.0 0.00 0.00 0.00 95 1017.0
20200120014511 52 0 1.0 4.0 0.00 0.00 0.00 95 1016.9
20200120014011 52 0 0.0 6.0 0.00 0.00 0.00 95 1016.9
20200120013510 52 0 0.0 6.0 0.00 0.00 0.00 95 1016.9
20200120013010 52 149 0.0 6.0 0.00 0.00 0.00 94 1017.0
20200120012514 53 130 2.0 8.0 0.00 0.00 0.00 94 1016.8
20200120012010 52 120 5.0 8.0 0.00 0.00 0.00 94 1016.9
20200120011511 52 130 4.0 8.0 0.00 0.00 0.00 94 1016.9
20200120011010 53 357 5.0 5.0 0.00 0.00 0.00 94 1016.9
20200120010510 53 0 0.0 0.0 0.00 0.00 0.00 93 1016.9
20200120010010 53 0 0.0 0.0 0.00 0.00 0.00 93 1017.1
20200120005510 53 0 0.0 0.0 0.00 0.00 0.00 93 1017.1
20200120005010 53 0 0.0 0.0 0.00 0.00 0.00 92 1017.1
20200120004510 53 0 0.0 0.0 0.00 0.00 0.00 92 1017.3
20200120004010 53 0 0.0 0.0 0.00 0.00 0.00 92 1017.3
20200120003510 54 0 0.0 0.0 0.00 0.00 0.00 92 1017.3
20200120003010 54 0 0.0 0.0 0.00 0.00 0.00 91 1017.2
20200120002512 54 0 0.0 0.0 0.00 0.00 0.00 90 1017.3
20200120002010 54 0 0.0 0.0 0.00 0.00 0.00 90 1017.3
20200120001510 55 0 0.0 2.0 0.00 0.00 0.00 90 1017.3
20200120001010 55 0 0.0 2.0 0.00 0.00 0.00 89 1017.3
20200120000510 55 46 0.0 2.0 0.00 0.00 0.00 89 1017.3
20200120000010 55 0 0.0 0.0 0.00 0.00 0.00 89 1017.4
20200119235510 55 0 0.0 0.0 0.00 0.00 0.00 89 1017.3
20200119235010 55 0 0.0 0.0 0.00 0.00 0.00 88 1017.2
20200119234512 55 0 0.0 7.0 0.00 0.00 0.00 88 1017.2
20200119234010 55 56 0.0 7.0 0.00 0.00 0.00 88 1017.2
20200119233510 55 58 0.0 7.0 0.00 0.00 0.00 88 1017.3
20200119233010 55 63 3.0 10.0 0.00 0.00 0.00 88 1017.4
20200119232511 56 53 5.0 10.0 0.00 0.00 0.00 87 1017.3
20200119232011 55 74 5.0 10.0 0.00 0.00 0.00 87 1017.3
20200119231512 55 93 6.0 12.0 0.00 0.00 0.00 87 1017.1
20200119231010 56 74 6.0 12.0 0.00 0.00 0.00 87 1017.1
20200119230510 56 65 6.0 12.0 0.00 0.00 0.00 87 1017.1
20200119230010 55 75 8.0 14.0 0.00 0.00 0.00 86 1017.0
20200119225510 56 74 5.0 14.0 0.00 0.00 0.00 86 1017.1
20200119225010 56 72 6.0 14.0 0.00 0.00 0.00 86 1017.2
20200119224510 56 71 7.0 15.0 0.00 0.00 0.00 85 1017.2
20200119224010 56 58 8.0 15.0 0.00 0.00 0.00 85 1017.1
20200119223510 56 68 8.0 15.0 0.00 0.00 0.00 84 1017.1
20200119223010 57 64 8.0 14.0 0.00 0.00 0.00 84 1017.1
20200119222510 57 63 7.0 12.0 0.00 0.00 0.00 84 1017.1
20200119222010 57 54 3.0 10.0 0.00 0.00 0.00 84 1017.2
20200119221510 57 61 5.0 10.0 0.00 0.00 0.00 84 1017.2
20200119221010 57 57 5.0 10.0 0.00 0.00 0.00 84 1017.3
20200119220510 57 116 4.0 10.0 0.00 0.00 0.00 84 1017.4
20200119220010 57 71 5.0 10.0 0.00 0.00 0.00 84 1017.5
20200119215510 57 71 2.0 10.0 0.00 0.00 0.00 83 1017.5
20200119215010 57 57 5.0 13.0 0.00 0.00 0.00 83 1017.7
20200119214510 57 60 5.0 13.0 0.00 0.00 0.00 83 1017.9
20200119214010 57 65 8.0 13.0 0.00 0.00 0.00 83 1017.9
20200119213510 57 65 7.0 13.0 0.00 0.00 0.00 83 1018.0
20200119213010 57 61 8.0 13.0 0.00 0.00 0.00 83 1018.1
20200119212510 57 68 6.0 13.0 0.00 0.00 0.00 83 1018.2
20200119212011 57 64 8.0 13.0 0.00 0.00 0.00 83 1018.3
20200119211510 57 71 6.0 14.0 0.00 0.00 0.00 83 1018.4
20200119211010 57 71 9.0 14.0 0.00 0.00 0.00 83 1018.5
20200119210510 56 63 9.0 14.0 0.00 0.00 0.00 83 1018.6
20200119210012 56 72 9.0 15.0 0.00 0.00 0.00 82 1018.7
20200119205510 56 70 9.0 15.0 0.00 0.00 0.00 83 1018.8
20200119205010 56 61 8.0 15.0 0.00 0.00 0.00 83 1018.8
20200119204510 56 67 9.0 17.0 0.00 0.00 0.00 83 1018.8
20200119204010 56 89 10.0 17.0 0.00 0.00 0.00 83 1018.9
20200119203510 56 43 12.0 17.0 0.00 0.00 0.00 83 1019.0
20200119203010 55 88 12.0 18.0 0.00 0.00 0.00 84 1019.1
20200119202510 55 78 14.0 18.0 0.00 0.00 0.00 83 1019.2
20200119202010 55 70 14.0 18.0 0.00 0.00 0.00 82 1019.4
20200119201510 56 79 12.0 17.0 0.00 0.00 0.00 83 1019.5
20200119201010 56 60 9.0 16.0 0.00 0.00 0.00 84 1019.7
20200119200510 56 74 8.0 16.0 0.00 0.00 0.00 84 1019.8
20200119200010 55 77 12.0 16.0 0.00 0.00 0.00 84 1019.8
20200119195511 55 78 12.0 15.0 0.00 0.00 0.00 85 1020.0
20200119195010 55 85 9.0 14.0 0.00 0.00 0.00 85 1020.1
20200119194510 55 71 9.0 14.0 0.00 0.00 0.00 85 1020.2
20200119194010 55 49 8.0 14.0 0.00 0.00 0.00 85 1020.4
20200119193510 55 57 9.0 15.0 0.00 0.00 0.00 85 1020.5
20200119193010 55 75 10.0 15.0 0.00 0.00 0.00 84 1020.6
20200119192510 55 75 7.0 15.0 0.00 0.00 0.00 85 1020.7
20200119192010 55 85 12.0 14.0 0.00 0.00 0.00 84 1020.8
20200119191510 55 61 11.0 14.0 0.00 0.00 0.00 85 1020.9
20200119191010 55 70 10.0 14.0 0.00 0.00 0.00 85 1021.1
20200119190510 55 72 11.0 14.0 0.00 0.00 0.00 85 1021.2
20200119190010 55 75 8.0 13.0 0.00 0.00 0.00 86 1021.2
20200119185510 55 63 9.0 13.0 0.00 0.00 0.00 87 1021.2
20200119185010 55 74 8.0 12.0 0.00 0.00 0.00 88 1021.4
20200119184510 55 71 8.0 11.0 0.00 0.00 0.00 88 1021.4
20200119184011 55 60 7.0 11.0 0.00 0.00 0.00 89 1021.4
20200119183510 55 65 4.0 10.0 0.00 0.00 0.00 90 1021.4
20200119183010 55 64 5.0 10.0 0.00 0.00 0.00 90 1021.5
20200119182510 54 58 8.0 11.0 0.00 0.00 0.00 91 1021.5
20200119182010 54 84 7.0 11.0 0.00 0.00 0.00 91 1021.5
20200119181510 54 124 8.0 11.0 0.00 0.00 0.00 90 1021.5
20200119181013 55 102 8.0 11.0 0.00 0.00 0.00 91 1021.5
20200119180510 55 79 8.0 11.0 0.00 0.00 0.00 90 1021.6
20200119180010 55 138 7.0 11.0 0.00 0.00 0.00 91 1021.6
20200119175510 55 89 7.0 12.0 0.00 0.00 0.00 91 1021.7
20200119175010 55 124 7.0 12.0 0.00 0.00 0.00 91 1021.6
20200119174510 55 126 6.0 12.0 0.00 0.00 0.00 92 1021.7
20200119174010 55 100 8.0 11.0 0.00 0.00 0.00 92 1021.7
20200119173511 55 120 7.0 11.0 0.00 0.00 0.00 92 1021.8
20200119173010 55 142 5.0 13.0 0.00 0.00 0.00 93 1021.8
20200119172510 55 162 7.0 13.0 0.00 0.00 0.00 94 1021.8
20200119172010 55 119 8.0 13.0 0.00 0.00 0.00 94 1021.7
20200119171510 55 106 9.0 13.0 0.00 0.00 0.00 95 1021.7
20200119171010 54 126 9.0 14.0 0.00 0.00 0.00 96 1021.7
20200119170510 54 130 10.0 14.0 0.00 0.00 0.00 96 1021.7
20200119170010 54 120 8.0 14.0 0.00 0.00 0.00 96 1021.6
20200119165510 53 103 10.0 12.0 0.00 0.00 0.00 97 1021.5
20200119165010 53 86 9.0 12.0 0.00 0.00 0.00 97 1021.7
20200119164510 53 105 10.0 12.0 0.00 0.00 0.00 97 1021.6
20200119164010 53 112 10.0 13.0 0.00 0.00 0.00 97 1021.7
20200119163510 54 58 9.0 13.0 0.00 0.00 0.00 96 1021.7
20200119163012 54 131 8.0 13.0 0.00 0.00 0.00 96 1021.7
20200119162510 54 133 9.0 11.0 0.00 0.00 0.00 96 1021.6
20200119162010 54 117 8.0 10.0 0.00 0.00 0.00 95 1021.6
20200119161510 55 131 8.0 13.0 0.00 0.00 0.00 95 1021.6
20200119161010 55 121 8.0 13.0 0.00 0.00 0.00 95 1021.7
20200119160510 55 128 7.0 13.0 0.00 0.00 0.00 95 1021.6
20200119160010 55 127 9.0 12.0 0.00 0.00 0.00 95 1021.6
20200119155510 56 134 5.0 15.0 0.00 0.00 0.00 95 1021.7
20200119155010 55 128 8.0 15.0 0.00 0.00 0.00 95 1021.7
20200119154510 55 144 7.0 15.0 0.00 0.00 0.00 95 1021.7
20200119154010 55 141 11.0 15.0 0.00 0.00 0.00 95 1021.7
20200119153510 55 128 12.0 15.0 0.00 0.00 0.00 95 1021.6
20200119153010 55 140 7.0 15.0 0.00 0.00 0.00 96 1021.6
20200119152510 55 96 10.0 13.0 0.00 0.00 0.00 96 1021.8
20200119152010 55 144 11.0 14.0 0.00 0.00 0.00 96 1021.8
20200119151510 55 126 9.0 14.0 0.00 0.00 0.00 96 1021.8
20200119151010 55 152 7.0 14.0 0.00 0.00 0.00 97 1022.0
20200119150510 55 142 8.0 11.0 0.00 0.00 0.00 97 1022.0
20200119150010 55 126 8.0 11.0 0.00 0.00 0.00 97 1021.9
20200119145510 55 156 2.0 12.0 0.00 0.00 0.00 97 1022.0
20200119145010 54 133 7.0 12.0 0.00 0.00 0.00 97 1021.9
20200119144510 54 141 6.0 12.0 0.00 0.00 0.00 97 1021.9
20200119144010 54 151 9.0 10.0 0.00 0.00 0.00 97 1021.8
20200119143510 54 123 7.0 11.0 0.00 0.00 0.00 97 1021.9
20200119143011 54 141 7.0 11.0 0.00 0.00 0.00 97 1021.9
20200119142510 54 140 6.0 11.0 0.00 0.00 0.00 97 1021.9
20200119142010 54 145 7.0 14.0 0.00 0.00 0.00 97 1021.9
20200119141510 54 147 8.0 14.0 0.00 0.00 0.00 97 1021.9
20200119141010 54 147 8.0 14.0 0.00 0.00 0.00 97 1021.9
20200119140510 54 159 9.0 15.0 0.00 0.00 0.00 97 1021.8
20200119140010 54 142 10.0 15.0 0.00 0.00 0.00 97 1021.8
20200119135510 54 154 11.0 15.0 0.00 0.00 0.00 96 1021.9
20200119135010 54 144 12.0 16.0 0.00 0.00 0.00 96 1021.9
20200119134510 54 144 10.0 16.0 0.00 0.00 0.00 96 1022.0
20200119134010 54 154 10.0 16.0 0.00 0.00 0.00 96 1022.0
20200119133510 54 145 10.0 14.0 0.00 0.00 0.00 96 1022.1
20200119133010 54 144 10.0 13.0 0.00 0.00 0.00 96 1022.0
20200119132510 54 154 7.0 14.0 0.00 0.00 0.00 97 1022.1
20200119132010 54 140 10.0 14.0 0.00 0.00 0.00 97 1022.0
20200119131510 54 165 6.0 14.0 0.00 0.00 0.00 97 1022.1
20200119131010 55 137 10.0 11.0 0.00 0.00 0.00 98 1022.1
20200119130510 55 131 8.0 12.0 0.00 0.00 0.00 98 1022.1
20200119130010 55 141 6.0 12.0 0.00 0.00 0.00 98 1022.1
20200119125510 54 151 7.0 12.0 0.00 0.00 0.00 98 1022.1
20200119125011 54 145 2.0 13.0 0.00 0.00 0.00 98 1022.2
20200119124510 54 145 3.0 13.0 0.00 0.00 0.00 98 1022.3
20200119124010 54 148 5.0 13.0 0.00 0.00 0.00 98 1022.3
20200119123510 54 169 5.0 13.0 0.00 0.00 0.00 98 1022.4
20200119123010 54 176 5.0 13.0 0.00 0.00 0.00 99 1022.5
20200119122510 54 172 6.0 18.0 0.00 0.00 0.00 99 1022.5
20200119122010 54 161 5.0 18.0 0.00 0.00 0.00 99 1022.5
20200119121510 54 175 0.0 18.0 0.00 0.00 0.00 99 1022.6
20200119121010 54 148 5.0 15.0 0.00 0.00 0.00 100 1022.7
20200119120510 54 148 6.0 13.0 0.00 0.00 0.00 100 1022.7
20200119120010 54 131 7.0 15.0 0.00 0.00 0.00 100 1022.7
20200119115510 54 124 8.0 15.0 0.00 0.00 0.00 100 1022.6
20200119115010 54 119 8.0 15.0 0.00 0.00 0.00 100 1022.9
20200119114510 54 154 3.0 15.0 0.00 0.00 0.00 100 1023.0
20200119114010 53 116 4.0 15.0 0.00 0.00 0.00 100 1023.1
20200119113510 53 138 4.0 13.0 0.00 0.00 0.00 100 1023.2
20200119113010 53 116 6.0 15.0 0.00 0.00 0.00 100 1023.1
20200119112510 53 127 5.0 15.0 0.00 0.00 0.00 100 1023.1
20200119112010 53 134 8.0 15.0 0.00 0.00 0.00 100 1023.1
20200119111510 53 152 7.0 12.0 0.00 0.00 0.00 100 1023.2
20200119111010 53 184 5.0 11.0 0.00 0.00 0.00 100 1023.3
20200119110510 53 117 6.0 13.0 0.00 0.00 0.00 100 1023.3
20200119110010 53 155 1.0 13.0 0.00 0.00 0.00 100 1023.4
20200119105510 53 144 0.0 13.0 0.00 0.00 0.00 100 1023.4
20200119105010 53 145 6.0 15.0 0.00 0.00 0.00 100 1023.4
20200119104510 53 144 7.0 15.0 0.00 0.00 0.00 100 1023.5
20200119104010 53 141 5.0 15.0 0.00 0.00 0.00 100 1023.4
20200119103510 53 134 3.0 14.0 0.00 0.00 0.00 100 1023.5
20200119103011 53 135 4.0 14.0 0.00 0.00 0.00 100 1023.4
20200119102510 53 135 7.0 13.0 0.00 0.00 0.00 100 1023.4
20200119102010 53 138 6.0 13.0 0.00 0.00 0.00 100 1023.4
20200119101510 52 133 2.0 12.0 0.00 0.00 0.00 100 1023.5
20200119101010 52 168 3.0 12.0 0.00 0.00 0.00 100 1023.5
20200119100510 52 165 5.0 11.0 0.00 0.00 0.00 100 1023.5
20200119100010 52 149 5.0 11.0 0.00 0.00 0.00 100 1023.5
20200119095510 52 123 3.0 10.0 0.00 0.00 0.00 100 1023.6
20200119095010 52 144 2.0 12.0 0.00 0.00 0.00 100 1023.6
20200119094510 52 175 3.0 12.0 0.00 0.00 0.00 100 1023.6
20200119094010 52 145 3.0 12.0 0.00 0.00 0.00 100 1023.5
20200119093510 52 163 7.0 12.0 0.00 0.00 0.00 100 1023.6
20200119093010 52 149 5.0 12.0 0.00 0.00 0.00 100 1023.6
20200119092510 52 152 0.0 12.0 0.00 0.00 0.00 100 1023.7
20200119092010 52 175 4.0 12.0 0.00 0.00 0.00 100 1023.6
20200119091519 52 156 4.0 12.0 0.00 0.00 0.00 100 1023.6
20200119091010 52 169 2.0 12.0 0.00 0.00 0.00 100 1023.7
20200119090510 52 142 2.0 12.0 0.00 0.00 0.00 100 1023.7
20200119090010 52 131 3.0 16.0 0.00 0.00 0.00 100 1023.6
20200119085510 52 175 4.0 16.0 0.00 0.00 0.00 100 1023.7
20200119085011 52 137 3.0 16.0 0.00 0.00 0.00 100 1023.7
20200119084511 52 183 6.0 13.0 0.00 0.00 0.00 100 1023.7
20200119084010 52 134 2.0 11.0 0.00 0.00 0.00 100 1023.7
20200119083510 52 147 1.0 12.0 0.00 0.00 0.00 100 1023.7
20200119083010 52 168 2.0 12.0 0.00 0.00 0.00 100 1023.8
20200119082510 51 127 3.0 12.0 0.00 0.00 0.00 100 1023.8
20200119082010 51 138 2.0 11.0 0.00 0.00 0.00 100 1023.8
20200119081510 51 166 4.0 11.0 0.00 0.00 0.00 100 1023.9
20200119081010 51 156 5.0 12.0 0.00 0.00 0.00 100 1023.9
20200119080510 51 175 3.0 12.0 0.00 0.00 0.00 100 1023.8
20200119080010 51 131 0.0 12.0 0.00 0.00 0.00 100 1023.9
20200119075510 51 135 7.0 10.0 0.00 0.00 0.00 100 1023.8
20200119075010 51 154 4.0 10.0 0.00 0.00 0.00 100 1023.9
20200119074511 51 138 4.0 10.0 0.00 0.00 0.00 100 1023.9
20200119074010 51 144 4.0 8.0 0.00 0.00 0.00 100 1024.0
20200119073510 51 172 4.0 8.0 0.00 0.00 0.00 100 1024.0
20200119073010 51 159 1.0 10.0 0.00 0.00 0.00 100 1024.1
20200119072510 51 166 0.0 10.0 0.00 0.00 0.00 100 1024.1
20200119072010 51 172 0.0 10.0 0.00 0.00 0.00 100 1024.1
20200119071510 51 130 5.0 14.0 0.00 0.00 0.00 100 1024.0
20200119071010 51 149 6.0 14.0 0.00 0.00 0.00 100 1023.9
20200119070510 51 128 4.0 14.0 0.00 0.00 0.00 100 1023.8
20200119070010 51 184 6.0 10.0 0.00 0.00 0.00 100 1023.8
20200119065510 51 165 5.0 10.0 0.00 0.00 0.00 100 1023.7
20200119065010 51 159 3.0 10.0 0.00 0.00 0.00 100 1023.7
20200119064510 51 176 2.0 13.0 0.00 0.00 0.00 100 1023.8
20200119064010 51 149 0.0 13.0 0.00 0.00 0.00 100 1023.8
20200119063510 51 117 3.0 13.0 0.00 0.00 0.00 100 1023.9
20200119063010 51 161 6.0 10.0 0.00 0.00 0.00 100 1023.9
20200119062510 51 191 3.0 10.0 0.00 0.00 0.00 100 1023.9
20200119062010 51 126 2.0 12.0 0.00 0.00 0.00 100 1023.9
20200119061510 51 144 4.0 12.0 0.00 0.00 0.00 100 1023.8
20200119061010 51 154 6.0 12.0 0.00 0.00 0.00 100 1023.9
20200119060510 50 140 5.0 11.0 0.00 0.00 0.00 100 1023.9
20200119060010 50 135 7.0 11.0 0.00 0.00 0.00 100 1023.9
20200119055510 50 156 4.0 12.0 0.00 0.00 0.00 100 1024.1
20200119055010 50 142 1.0 12.0 0.00 0.00 0.00 100 1024.1
20200119054510 50 135 7.0 12.0 0.00 0.00 0.00 100 1024.1
20200119054010 50 144 7.0 9.0 0.00 0.00 0.00 100 1024.1
20200119053511 50 127 8.0 8.0 0.00 0.00 0.00 100 1024.2
20200119053010 50 0 0.0 11.0 0.00 0.00 0.00 100 1024.2
20200119052510 50 145 0.0 11.0 0.00 0.00 0.00 100 1024.3
20200119052010 50 141 0.0 11.0 0.00 0.00 0.00 100 1024.2
20200119051510 50 140 9.0 11.0 0.00 0.00 0.00 100 1024.1
20200119051010 50 140 8.0 10.0 0.00 0.00 0.00 100 1024.1
20200119050510 50 124 7.0 9.0 0.00 0.00 0.00 100 1024.1
20200119050010 50 133 6.0 9.0 0.00 0.00 0.00 100 1024.1
20200119045510 50 124 5.0 9.0 0.00 0.00 0.00 100 1024.0
20200119045010 50 119 6.0 8.0 0.00 0.00 0.00 100 1024.0
20200119044510 50 145 5.0 7.0 0.00 0.00 0.00 100 1024.1
20200119044010 50 176 0.0 7.0 0.00 0.00 0.00 100 1024.1
20200119043509 50 151 0.0 10.0 0.00 0.00 0.00 100 1024.1
20200119043009 50 148 1.0 10.0 0.00 0.00 0.00 100 1024.2
20200119042510 50 144 1.0 10.0 0.00 0.00 0.00 100 1024.2
20200119042010 50 0 0.0 0.0 0.00 0.00 0.00 100 1024.2
20200119041510 50 0 0.0 0.0 0.00 0.00 0.00 100 1024.2
20200119041010 50 0 0.0 0.0 0.00 0.00 0.00 100 1024.2
20200119040510 50 0 0.0 8.0 0.00 0.00 0.00 100 1024.1
20200119040010 50 128 0.0 8.0 0.00 0.00 0.00 100 1024.1
20200119035510 50 154 5.0 8.0 0.00 0.00 0.00 100 1024.0
20200119035009 50 151 0.0 8.0 0.00 0.00 0.00 100 1023.9
20200119034512 50 148 0.0 8.0 0.00 0.00 0.00 100 1023.8
20200119034009 50 142 0.0 8.0 0.00 0.00 0.00 100 1023.8
20200119033510 50 145 1.0 5.0 0.00 0.00 0.00 100 1023.8
20200119033010 50 183 0.0 7.0 0.00 0.00 0.00 100 1023.9
20200119032510 50 0 0.0 7.0 0.00 0.00 0.00 100 1023.9
20200119032010 50 159 0.0 7.0 0.00 0.00 0.00 100 1024.0